Regional Weather Roundup
Issued by NWS

Home | Current Version | Previous Version | Text Only | Print | Product List | Glossary Off
Versions: 1 2 3 4 5 6 7 8 9 10 11 12 13 14 15 16 17 18 19 20 21 22 23 24 25 26 27 28 29 30 31 32 33 34 35 36 37 38 39 40 41 42 43 44 45 46 47 48 49 50

000
ASUS45 KBOI 161310
RWRID
WEATHER ROUNDUP FOR IDAHO
NATIONAL WEATHER SERVICE BOISE ID
700 AM MDT TUE SEP 16 2014

NOTE: "FAIR" INDICATES FEW OR NO CLOUDS BELOW 12000 FEET
WITH NO SIGNIFICANT WEATHER AND/OR OBSTRUCTIONS TO VISIBILITY

IDZ012-014-161400-
SOUTHWEST IDAHO


CITY           SKY/WX    TMP DP  RH WIND       PRES   REMARKS
BOISE          CLOUDY    68  54  60 E6        29.97R
CALDWELL       CLOUDY    66  48  52 CALM      29.96R
MOUNTAIN HOME  MOCLDY    69  38  32 N2        29.98S
$$

IDZ016-017-161400-
SOUTHCENTRAL IDAHO


CITY           SKY/WX    TMP DP  RH WIND       PRES   REMARKS
BURLEY         MOCLDY    53  43  68 NW5       30.06R
JEROME         MOCLDY    62  38  40 VRB3      30.07R
TWIN FALLS     MOCLDY    60  40  47 SE7       30.05R
$$

IDZ019>023-161400-
SOUTHEAST IDAHO


CITY           SKY/WX    TMP DP  RH WIND       PRES   REMARKS
IDAHO FALLS    MOCLDY    52  39  61 N7        30.14R
POCATELLO      CLEAR     52  36  54 CALM      30.11S
REXBURG        MOCLDY    48  38  68 NE3       30.15S
$$

IDZ006-010-011-018-031-032-161400-
CENTRAL IDAHO MOUNTAINS


CITY           SKY/WX    TMP DP  RH WIND       PRES   REMARKS
MCCALL         MOCLDY    47  37  68 E3        30.11R
HAILEY         MOCLDY    61  39  44 W12       30.17S
STANLEY          N/A     46  33  60 W5        30.29R
SALMON         PTCLDY    43  37  81 CALM      30.12R
CHALLIS        PTCLDY    53  34  48 S5        30.16R
$$

IDZ002-004-006-007-026-161400-
NORTHERN IDAHO


CITY           SKY/WX    TMP DP  RH WIND       PRES   REMARKS
LEWISTON       CLEAR     58  36  43 SE5       29.87S
LOWELL           N/A     49  45  86 NW5       29.99S
COEUR D`ALENE  CLEAR     54  39  58 NE13      29.93S
MULLAN PASS    CLEAR     63  25  23 S3        30.11F
$$


USA.gov is the U.S. government's official web portal to all federal, state and local government web resources and services.